Simultaneous Nadir Overpasses (SNOs) Predictions

Prediction of SNOs between AQUA and METOP-A Satellite Orbit:

Table of predicted SNOs for the next 14.0 days since TLE Epoch: 6/13/2014
Index Date (AQUA) Time (AQUA) Lat,Lon (AQUA) SZA (AQUA ) Date (METOP-A) Time (METOP-A) Lat,Lon (METOP-A) SZA (METOP-A ) Distance(km) Time Diff (sec)
1 06/13/2014 23:27:15 73.81,-177.43 50.57 06/13/2014 23:26:16 73.81,-177.49 50.58 2.03 59
2 06/14/2014 00:16:42 -73.89, -9.97 129.35 06/14/2014 00:16:56 -73.88, -10.00 129.36 1.85 14
3 06/14/2014 01:06:18 74.32, 156.68 51.12 06/14/2014 01:07:27 74.34, 158.48 51.07 54.12 69
4 06/16/2014 19:01:29 73.84,-111.06 50.49 06/16/2014 19:00:42 73.82,-111.07 50.48 2.54 47
5 06/16/2014 19:50:56 -73.92, 56.40 129.43 06/16/2014 19:51:22 -73.89, 56.43 129.46 3.49 26
6 06/19/2014 14:35:41 73.85, -44.64 50.45 06/19/2014 14:35:07 73.82, -44.66 50.42 3.44 34
7 06/19/2014 15:25:08 -73.93, 122.83 129.48 06/19/2014 15:25:47 -73.90, 122.86 129.51 3.13 39
8 06/22/2014 09:20:13 -73.18,-144.41 130.27 06/22/2014 09:19:07 -73.13,-147.19 130.21 89.59 66
9 06/22/2014 10:09:53 73.84, 21.83 50.43 06/22/2014 10:09:32 73.87, 21.85 50.46 3.32 21
10 06/22/2014 10:59:20 -73.91,-170.68 129.50 06/22/2014 11:00:13 -73.91,-170.73 129.51 1.68 53
11 06/25/2014 04:54:35 -73.72, -79.08 129.66 06/25/2014 04:53:22 -73.68, -79.55 129.67 15.26 73
12 06/25/2014 05:44:05 73.86, 88.24 50.50 06/25/2014 05:43:58 73.86, 88.24 50.51 0.57 7
13 06/25/2014 06:33:32 -73.93,-104.26 129.43 06/25/2014 06:34:39 -73.91,-104.34 129.46 3.18 67




NCC Satellite Simultaneous Nadir Overpasses (SNOs) Prediction Service
